Regional Weather Roundup
Issued by NWS Cleveland, OH

Home | Current Version | Previous Version | Graphics & Text | Print | Product List | Glossary On
Versions: 1 2 3 4 5 6 7 8 9 10 11 12 13 14 15 16 17 18 19 20 21 22 23 24 25 26 27 28 29 30 31 32 33 34 35 36 37 38 39 40 41 42 43 44 45 46 47 48 49 50
779
ASUS41 KCLE 030400
RWRCLE
OHIO REGIONAL WEATHER ROUNDUP
NATIONAL WEATHER SERVICE WILMINGTON, OH
1200 AM EDT TUE MAY 03 2016

NOTE: "FAIR" INDICATES FEW OR NO CLOUDS BELOW 12,000 FEET WITH NO
SIGNIFICANT WEATHER AND/OR OBSTRUCTIONS TO VISIBILITY.

OHZ001>008-015>018-024>027-034-035-043-044-030500-
   NORTHWEST OHIO

CITY           SKY/WX    TMP DP  RH WIND       PRES   REMARKS
DEFIANCE       CLOUDY    50  47  89 CALM      29.98F
FINDLAY        CLOUDY    50  43  77 E3        29.97S
TOLEDO EXPRESS CLOUDY    48  45  89 CALM      29.98S
TOLEDO EXEC    CLOUDY    49  44  83 CALM      29.99S
LIMA           CLOUDY    49  45  86 NE3       29.97S
$$

OHZ009>014-019>023-028>033-038-089-030500-
   NORTHEAST OHIO

CITY           SKY/WX    TMP DP  RH WIND       PRES   REMARKS
CLE-HOPKINS    MOCLDY    45  42  89 N5        29.98F
CLE-LAKEFRONT  CLOUDY    47  44  90 E3        29.96F
CUY CO. ARPT   NOT AVBL
LORAIN-ELYRIA  CLOUDY    43  40  89 CALM      29.97F
ASHTABULA      FOG       41  41 100 CALM      29.96F VSB 1/2
AKRON-CANTON   FAIR      45  42  89 N6        29.94F
WOOSTER        NOT AVBL
MANSFIELD      FAIR      42  41  96 N3        29.95F
YOUNGSTOWN     CLOUDY    41  40  96 NW6       29.93F
$$

OHZ042-051>053-060>062-070>072-077>081-030500-
  SOUTHWEST OHIO

CITY           SKY/WX    TMP DP  RH WIND       PRES   REMARKS
CINC-COVINGTON MOCLDY    54  51  90 W3        29.94F
CINC-LUNKEN    CLOUDY    58  53  84 NE7       29.95S
HAMILTON       CLOUDY    57  52  83 N5        29.96S
DAYTON         NOT AVBL
WRIGHT-PAT AFB NOT AVBL
DAYTON GENERAL CLOUDY    53  48  83 N6        29.94S
WILMINGTON     CLOUDY    52  49  89 N6        29.93F
$$

OHZ036-037-039>041-045>050-054>059-063>069-073>076-082>088-030500-
  CENTRAL AND SOUTHEAST OHIO

CITY           SKY/WX    TMP DP  RH WIND       PRES   REMARKS
COLUMBUS       CLOUDY    50  46  86 N9        29.94F
OSU AIRPORT    CLOUDY    51  46  83 N8        29.94F
BOLTON FIELD   NOT AVBL
RICKENBACK AFB NOT AVBL
NEWARK         CLOUDY    52  45  77 N6        29.93F
MARION         CLOUDY    46  43  89 N7        29.96F
LANCASTER      CLOUDY    53  48  83 N6        29.94S
ZANESVILLE     CLOUDY    53  47  79 N6        29.93F
NEW PHILLY     CLOUDY    50  44  80 NE5       29.94F
$$




USA.gov is the U.S. government's official web portal to all federal, state and local government web resources and services.